| time (UTC) | temp C | wind direction | speed KPH | gust KPH | rain 1hr cm | rain 24hr cm | rain mn cm | humidity % | barometer mb |
| 20260906224556 | 35 | 227 | 0.0 | 0.0 | 0.00 | 0.00 | 0.00 | 43 | 1006.7 |
| 20260906223056 | 36 | 166 | 0.0 | 4.8 | 0.00 | 0.00 | 0.00 | 40 | 1006.8 |
| 20260906221554 | 35 | 198 | 0.0 | 6.4 | 0.00 | 0.00 | 0.00 | 41 | 1007.0 |
| 20260906220052 | 35 | 228 | 0.0 | 0.0 | 0.00 | 0.00 | 0.00 | 42 | 1007.0 |
| 20260906214554 | 35 | 217 | 0.0 | 1.6 | 0.00 | 0.00 | 0.00 | 42 | 1007.0 |
| 20260906213052 | 36 | 159 | 0.0 | 0.0 | 0.00 | 0.00 | 0.00 | 40 | 1006.9 |
| 20260906211548 | 35 | 185 | 0.0 | 1.6 | 0.00 | 0.00 | 0.00 | 42 | 1007.4 |
| 20260906210058 | 35 | 147 | 0.0 | 0.0 | 0.00 | 0.00 | 0.00 | 41 | 1007.6 |
| 20260906204551 | 36 | 267 | 0.0 | 3.2 | 0.00 | 0.00 | 0.00 | 40 | 1007.8 |
| 20260906203043 | 36 | 182 | 0.0 | 0.0 | 0.00 | 0.00 | 0.00 | 40 | 1008.1 |
| 20260906201556 | 35 | 218 | 0.0 | 0.0 | 0.00 | 0.00 | 0.00 | 41 | 1008.1 |
| 20260906200042 | 35 | 94 | 0.0 | 1.6 | 0.00 | 0.00 | 0.00 | 41 | 1008.3 |
| 20260906194537 | 35 | 183 | 0.0 | 0.0 | 0.00 | 0.00 | 0.00 | 42 | 1008.4 |
| 20260906193036 | 35 | 192 | 0.0 | 1.6 | 0.00 | 0.00 | 0.00 | 42 | 1008.6 |
| 20260906191534 | 34 | 163 | 0.0 | 0.0 | 0.00 | 0.00 | 0.00 | 44 | 1008.9 |
| 20260906190039 | 35 | 245 | 0.0 | 0.0 | 0.00 | 0.00 | 0.00 | 43 | 1009.0 |
| 20260906184536 | 34 | 107 | 0.0 | 0.0 | 0.00 | 0.00 | 0.00 | 43 | 1009.2 |
| 20260906183037 | 34 | 193 | 0.0 | 4.8 | 0.00 | 0.00 | 0.00 | 43 | 1009.5 |
| 20260906181534 | 33 | 98 | 0.0 | 1.6 | 0.00 | 0.00 | 0.00 | 43 | 1009.8 |
| 20260906180025 | 33 | 191 | 0.0 | 3.2 | 0.00 | 0.00 | 0.00 | 42 | 1010.0 |
| 20260906174523 | 33 | 209 | 0.0 | 1.6 | 0.00 | 0.00 | 0.00 | 42 | 1010.3 |
| 20260906173021 | 33 | 177 | 0.0 | 1.6 | 0.00 | 0.00 | 0.00 | 42 | 1010.4 |
| 20260906171520 | 33 | 207 | 0.0 | 1.6 | 0.00 | 0.00 | 0.00 | 45 | 1010.5 |
| 20260906170016 | 32 | 200 | 0.0 | 1.6 | 0.00 | 0.00 | 0.00 | 49 | 1010.7 |
| 20260906164514 | 32 | 181 | 0.0 | 1.6 | 0.00 | 0.00 | 0.00 | 51 | 1010.9 |
| 20260906163013 | 32 | 261 | 0.0 | 3.2 | 0.00 | 0.00 | 0.00 | 53 | 1010.9 |
| 20260906161508 | 31 | 183 | 0.0 | 0.0 | 0.00 | 0.00 | 0.00 | 55 | 1010.9 |
| 20260906160006 | 30 | 195 | 0.0 | 0.0 | 0.00 | 0.00 | 0.00 | 57 | 1010.9 |
| 20260906154504 | 31 | 194 | 0.0 | 0.0 | 0.00 | 0.00 | 0.00 | 55 | 1010.7 |
| 20260906153001 | 31 | 5 | 0.0 | 0.0 | 0.00 | 0.00 | 0.00 | 58 | 1010.5 |
| 20260906151601 | 30 | 5 | 0.0 | 0.0 | 0.00 | 0.00 | 0.00 | 62 | 1010.4 |
| 20260906150053 | 28 | 5 | 0.0 | 0.0 | 0.00 | 0.00 | 0.00 | 65 | 1010.4 |
| 20260906144553 | 28 | 5 | 0.0 | 0.0 | 0.00 | 0.00 | 0.00 | 65 | 1010.2 |
| 20260906143054 | 28 | 5 | 0.0 | 0.0 | 0.00 | 0.00 | 0.00 | 66 | 1010.3 |
| 20260906141551 | 27 | 5 | 0.0 | 0.0 | 0.00 | 0.00 | 0.00 | 67 | 1010.4 |
| 20260906140051 | 27 | 5 | 0.0 | 0.0 | 0.00 | 0.00 | 0.00 | 70 | 1010.2 |
| 20260906134549 | 26 | 5 | 0.0 | 0.0 | 0.00 | 0.00 | 0.00 | 76 | 1010.2 |
| 20260906133105 | 25 | 95 | 0.0 | 0.0 | 0.00 | 0.00 | 0.00 | 78 | 1010.2 |
| 20260906131552 | 23 | 95 | 0.0 | 0.0 | 0.00 | 0.00 | 0.00 | 83 | 1010.1 |
| 20260906130055 | 22 | 95 | 0.0 | 0.0 | 0.00 | 0.00 | 0.00 | 87 | 1009.9 |
| 20260906124546 | 21 | 95 | 0.0 | 0.0 | 0.00 | 0.00 | 0.00 | 88 | 1009.7 |
| 20260906123045 | 21 | 94 | 0.0 | 0.0 | 0.00 | 0.00 | 0.00 | 87 | 1009.6 |
| 20260906121541 | 21 | 95 | 0.0 | 0.0 | 0.00 | 0.00 | 0.00 | 87 | 1009.3 |
| 20260906120046 | 21 | 97 | 0.0 | 0.0 | 0.00 | 0.00 | 0.00 | 87 | 1009.2 |
| 20260906114540 | 21 | 97 | 0.0 | 0.0 | 0.00 | 0.00 | 0.00 | 86 | 1009.0 |
| 20260906113042 | 21 | 97 | 0.0 | 0.0 | 0.00 | 0.00 | 0.00 | 85 | 1009.0 |
| 20260906111550 | 21 | 97 | 0.0 | 0.0 | 0.00 | 0.00 | 0.00 | 85 | 1008.8 |
| 20260906110039 | 22 | 97 | 0.0 | 0.0 | 0.00 | 0.00 | 0.00 | 84 | 1008.5 |
| 20260906104535 | 22 | 97 | 0.0 | 0.0 | 0.00 | 0.00 | 0.00 | 84 | 1008.5 |
| 20260906103033 | 22 | 97 | 0.0 | 0.0 | 0.00 | 0.00 | 0.00 | 84 | 1008.5 |
| 20260906101531 | 22 | 97 | 0.0 | 0.0 | 0.00 | 0.00 | 0.00 | 83 | 1008.6 |
| 20260906100034 | 22 | 97 | 0.0 | 0.0 | 0.00 | 0.00 | 0.00 | 83 | 1008.4 |
| 20260906094529 | 22 | 97 | 0.0 | 0.0 | 0.00 | 0.00 | 0.00 | 83 | 1008.6 |
| 20260906093043 | 22 | 97 | 0.0 | 0.0 | 0.00 | 0.00 | 0.00 | 82 | 1008.4 |
| 20260906091529 | 22 | 97 | 0.0 | 0.0 | 0.00 | 0.00 | 0.00 | 82 | 1008.3 |
| 20260906090028 | 23 | 97 | 0.0 | 0.0 | 0.00 | 0.00 | 0.00 | 81 | 1008.2 |
| 20260906084526 | 23 | 97 | 0.0 | 0.0 | 0.00 | 0.00 | 0.00 | 80 | 1008.2 |
| 20260906083033 | 23 | 97 | 0.0 | 0.0 | 0.00 | 0.00 | 0.00 | 80 | 1008.3 |
| 20260906081519 | 23 | 97 | 0.0 | 0.0 | 0.00 | 0.00 | 0.00 | 79 | 1008.3 |
| 20260906080015 | 23 | 97 | 0.0 | 0.0 | 0.00 | 0.00 | 0.00 | 78 | 1008.5 |
| 20260906074531 | 24 | 97 | 0.0 | 0.0 | 0.00 | 0.00 | 0.00 | 77 | 1008.6 |
| 20260906073011 | 25 | 97 | 0.0 | 0.0 | 0.00 | 0.00 | 0.00 | 75 | 1008.7 |
| 20260906071507 | 25 | 97 | 0.0 | 0.0 | 0.00 | 0.00 | 0.00 | 74 | 1008.9 |
| 20260906070006 | 25 | 97 | 0.0 | 0.0 | 0.00 | 0.00 | 0.00 | 72 | 1008.7 |
| 20260906064601 | 26 | 97 | 0.0 | 0.0 | 0.00 | 0.00 | 0.00 | 70 | 1008.8 |
| 20260906063058 | 26 | 97 | 0.0 | 0.0 | 0.00 | 0.00 | 0.00 | 69 | 1009.0 |
| 20260906061603 | 27 | 97 | 0.0 | 0.0 | 0.00 | 0.00 | 0.00 | 67 | 1009.0 |
| 20260906060052 | 27 | 97 | 0.0 | 0.0 | 0.00 | 0.00 | 0.00 | 65 | 1009.0 |
| 20260906054551 | 27 | 97 | 0.0 | 0.0 | 0.00 | 0.00 | 0.00 | 64 | 1009.0 |
| 20260906053102 | 28 | 140 | 0.0 | 0.0 | 0.00 | 0.00 | 0.00 | 63 | 1009.1 |
| 20260906051544 | 28 | 86 | 0.0 | 0.0 | 0.00 | 0.00 | 0.00 | 62 | 1009.4 |
| 20260906050043 | 28 | 86 | 0.0 | 0.0 | 0.00 | 0.00 | 0.00 | 61 | 1009.4 |
| 20260906044540 | 28 | 87 | 0.0 | 0.0 | 0.00 | 0.00 | 0.00 | 60 | 1009.1 |
| 20260906043039 | 29 | 94 | 0.0 | 0.0 | 0.00 | 0.00 | 0.00 | 60 | 1009.2 |
| 20260906041550 | 29 | 95 | 0.0 | 0.0 | 0.00 | 0.00 | 0.00 | 59 | 1009.2 |
| 20260906040038 | 30 | 111 | 0.0 | 0.0 | 0.00 | 0.00 | 0.00 | 58 | 1009.1 |
| 20260906034543 | 30 | 105 | 0.0 | 0.0 | 0.00 | 0.00 | 0.00 | 57 | 1009.1 |
| 20260906033045 | 29 | 81 | 0.0 | 0.0 | 0.00 | 0.00 | 0.00 | 57 | 1009.1 |
| 20260906031540 | 29 | 84 | 0.0 | 6.4 | 0.00 | 0.00 | 0.00 | 56 | 1008.7 |
| 20260906030045 | 29 | 86 | 0.0 | 0.0 | 0.00 | 0.00 | 0.00 | 53 | 1008.6 |
| 20260906024536 | 28 | 87 | 0.0 | 0.0 | 0.00 | 0.00 | 0.00 | 53 | 1008.1 |
| 20260906023035 | 28 | 87 | 0.0 | 0.0 | 0.00 | 0.00 | 0.00 | 54 | 1007.9 |
| 20260906021535 | 29 | 87 | 0.0 | 0.0 | 0.00 | 0.00 | 0.00 | 53 | 1007.7 |
| 20260906020035 | 30 | 87 | 0.0 | 0.0 | 0.00 | 0.00 | 0.00 | 51 | 1007.4 |
| 20260906014544 | 31 | 87 | 0.0 | 0.0 | 0.00 | 0.00 | 0.00 | 48 | 1007.3 |
| 20260906013034 | 32 | 87 | 0.0 | 0.0 | 0.00 | 0.00 | 0.00 | 45 | 1007.2 |
| 20260906011543 | 32 | 87 | 0.0 | 0.0 | 0.00 | 0.00 | 0.00 | 43 | 1007.0 |
| 20260906010056 | 33 | 87 | 0.0 | 0.0 | 0.00 | 0.00 | 0.00 | 42 | 1006.9 |
| 20260906004532 | 33 | 88 | 0.0 | 0.0 | 0.00 | 0.00 | 0.00 | 40 | 1006.9 |
| 20260906003032 | 34 | 112 | 0.0 | 1.6 | 0.00 | 0.00 | 0.00 | 38 | 1006.7 |
| 20260906001553 | 35 | 28 | 0.0 | 0.0 | 0.00 | 0.00 | 0.00 | 37 | 1006.7 |
| 20260906000031 | 35 | 95 | 0.0 | 3.2 | 0.00 | 0.00 | 0.00 | 36 | 1006.6 |
| 20260905234531 | 36 | 92 | 0.0 | 0.0 | 0.00 | 0.00 | 0.00 | 35 | 1006.6 |
| 20260905233029 | 36 | 80 | 0.0 | 1.6 | 0.00 | 0.00 | 0.00 | 34 | 1006.5 |
| 20260905231539 | 36 | 119 | 0.0 | 4.8 | 0.00 | 0.00 | 0.00 | 34 | 1006.5 |